カタログに戻る

STARLINK-32150

運用中通信VLEO
NORAD 60294·PAYLOAD·🇺🇸 United States

打ち上げ Jul 28, 2024 から Cape Canaveral Space Force Station

Loading…

次のパス (今後24時間)

TLE

最新Source: CelesTrak SupGP

元期: Sep 14, 2026, 21:19 UTC

1 60294C 24132S   26257.88868056  .00052257  00000+0  16805-2 0  2573
2 60294  53.1581 252.6130 0001395  92.6812 202.8705 15.31674224    11

AllMySatでSTARLINK-32150をリアルタイム追跡

Download on the App Store